Crookston, MN

8:34 PM CDT on August 20, 2017 (GMT -0500)
Crookston Municipal-Kirkwood

Weather History for KCKN - January, 2013

Change the Weather History Date:

Saturday, January 12, 2013

  Actual Average Record
Temperature  
Mean Temperature 2 °F -  
Max Temperature 10 °F 11 °F 37 °F (2014)
Min Temperature -5 °F 0 °F -29 °F (1999)
Degree Days  
Heating Degree Days 62    
Moisture  
Dew Point -3 °F    
Average Humidity 85    
Maximum Humidity 92    
Minimum Humidity 78    
Precipitation  
Precipitation 0.00 in - - ()
Sea Level Pressure  
Sea Level Pressure 29.90 in    
Wind  
Wind Speed 19 mph (NNW)    
Max Wind Speed 28 mph    
Max Gust Speed 33 mph    
Visibility 3 miles    
Events Snow    
Averages and records for this station are not official NWS values.
T = Trace of Precipitation, MM = Missing Value Source: NWS Daily Summary

Daily Weather History Graph

Daily Weather History Graph

Search for Another Location

Airport or City:

Trip Planner

Search our weather history database for the weather conditions in past years. The results will help you decide how hot, cold, wet, or windy it might be!

Date:

Astronomy

Jan. 12, 2013 Rise Set
Actual Time 8:12 AM CST 4:57 PM CST
Civil Twilight 7:37 AM CST 5:33 PM CST
Nautical Twilight 6:58 AM CST 6:11 PM CST
Astronomical Twilight 6:21 AM CST 6:48 PM CST
Moon 8:24 AM CST (1/12) 6:37 PM CST (1/12)
Length of Visible Light 9h 55m
Length of Day
8h 45m
New Moon, 1% of the Moon is Illuminated
Jan 12
New Moon
Jan 18
First Quarter
Jan 26
Full
Feb 3
Last Quarter
Feb 10
New

Hourly Weather History & Observations

Time (CST) Temp. Windchill Dew Point Humidity Pressure Visibility Wind Dir Wind Speed Gust Speed Precip Events Conditions
12:15 AM 10.4 °F -7.7 °F 8.6 °F 92% 29.51 in 0.8 mi North 18.4 mph - N/A Snow Snow
12:35 AM 10.4 °F -7.2 °F 8.6 °F 92% 29.51 in 1.0 mi North 17.3 mph - N/A Snow Light Snow
12:54 AM 10.4 °F -7.2 °F 8.6 °F 92% 29.52 in 1.2 mi North 17.3 mph - N/A Snow Light Snow
1:15 AM 10.4 °F -7.2 °F 8.6 °F 92% 29.53 in 1.2 mi North 17.3 mph - N/A Snow Light Snow
1:35 AM 10.4 °F -8.2 °F 6.8 °F 85% 29.54 in 1.8 mi North 19.6 mph - N/A Snow Light Snow
2:15 AM 8.6 °F -10.5 °F 6.8 °F 92% 29.56 in 1.8 mi North 19.6 mph - N/A Snow Light Snow
2:35 AM 8.6 °F -10.5 °F 6.8 °F 92% 29.57 in 2.0 mi North 19.6 mph - N/A Snow Light Snow
2:54 AM 8.6 °F -11.9 °F 6.8 °F 92% 29.58 in 1.8 mi North 23.0 mph - N/A Snow Light Snow
3:15 AM 8.6 °F -11.4 °F 6.8 °F 92% 29.60 in 2.0 mi North 21.9 mph - N/A   Overcast
3:35 AM 8.6 °F -12.3 °F 5.0 °F 85% 29.60 in 1.8 mi North 24.2 mph 27.6 mph N/A Snow Light Snow
3:54 AM 8.6 °F -11.4 °F 5.0 °F 85% 29.61 in 1.5 mi North 21.9 mph - N/A Snow Light Snow
4:15 AM 6.8 °F -13.8 °F 5.0 °F 92% 29.63 in 1.5 mi North 21.9 mph 26.5 mph N/A Snow Light Snow
4:35 AM 6.8 °F -14.7 °F 5.0 °F 92% 29.64 in 1.0 mi NNW 24.2 mph 27.6 mph N/A Snow Light Snow
4:54 AM 6.8 °F -13.4 °F 3.2 °F 85% 29.66 in 1.0 mi NNW 20.7 mph 31.1 mph N/A Snow Light Snow
5:15 AM 5.0 °F -16.7 °F 1.4 °F 85% 29.67 in 1.0 mi NNW 23.0 mph - N/A Snow Light Snow
5:35 AM 3.2 °F -18.6 °F 1.4 °F 92% 29.69 in 1.0 mi NNW 21.9 mph - N/A Snow Light Snow
5:54 AM 3.2 °F -20.3 °F -0.4 °F 85% 29.70 in 0.5 mi NNW 26.5 mph 32.2 mph N/A Snow Snow
6:15 AM 3.2 °F -19.9 °F -0.4 °F 85% 29.72 in 0.8 mi NNW 25.3 mph 31.1 mph N/A Snow Snow
6:35 AM 3.2 °F -20.7 °F -0.4 °F 85% 29.73 in 0.5 mi NNW 27.6 mph 33.4 mph N/A Snow Snow
6:54 AM 3.2 °F -19.5 °F -0.4 °F 85% 29.75 in 0.8 mi North 24.2 mph - N/A Snow Light Snow
7:15 AM 3.2 °F -19.9 °F -0.4 °F 85% 29.77 in 0.8 mi NNW 25.3 mph 31.1 mph N/A Snow Snow
7:35 AM 1.4 °F -21.4 °F -0.4 °F 92% 29.79 in 0.8 mi NNW 23.0 mph 28.8 mph N/A Snow Light Snow
7:54 AM 1.4 °F -21.9 °F -0.4 °F 92% 29.81 in 1.0 mi North 24.2 mph - N/A Snow Light Snow
8:15 AM 1.4 °F -21.9 °F -2.2 °F 85% 29.82 in 0.5 mi NNW 24.2 mph - N/A Snow Light Snow
8:35 AM 1.4 °F -21.0 °F -2.2 °F 85% 29.84 in 0.5 mi NNW 21.9 mph - N/A Snow Light Snow
8:55 AM -0.4 °F -24.3 °F -2.2 °F 92% 29.84 in 0.5 mi NNW 24.2 mph 28.8 mph N/A Snow Light Snow
9:15 AM -0.4 °F -22.8 °F -4.0 °F 85% 29.85 in 0.5 mi NNW 20.7 mph 28.8 mph N/A Snow Light Snow
9:34 AM -0.4 °F -23.3 °F -4.0 °F 85% 29.86 in 0.5 mi NNW 21.9 mph - N/A Snow Light Snow
9:55 AM -0.4 °F -22.8 °F -4.0 °F 85% 29.88 in 0.8 mi NNW 20.7 mph 26.5 mph N/A   Overcast
10:15 AM -0.4 °F -23.3 °F -4.0 °F 85% 29.88 in 0.8 mi North 21.9 mph - N/A   Overcast
10:34 AM -0.4 °F -23.3 °F -5.8 °F 78% 29.90 in 0.8 mi North 21.9 mph 26.5 mph N/A   Overcast
10:55 AM -0.4 °F -23.8 °F -5.8 °F 78% 29.91 in 0.8 mi NNW 23.0 mph - N/A   Overcast
11:15 AM -0.4 °F -22.8 °F -4.0 °F 85% 29.92 in 0.8 mi NNW 20.7 mph - N/A   Overcast
11:55 AM -0.4 °F -21.2 °F -5.8 °F 78% 29.94 in 1.0 mi NNW 17.3 mph - N/A   Overcast
12:15 PM -0.4 °F -22.8 °F -4.0 °F 85% 29.94 in 1.0 mi NNW 20.7 mph 24.2 mph N/A   Overcast
12:34 PM -0.4 °F -21.7 °F -5.8 °F 78% 29.95 in 1.2 mi NNW 18.4 mph - N/A   Overcast
12:55 PM -0.4 °F -21.7 °F -5.8 °F 78% 29.95 in 1.2 mi NNW 18.4 mph - N/A   Overcast
1:15 PM -0.4 °F -22.3 °F -5.8 °F 78% 29.96 in 1.2 mi NNW 19.6 mph - N/A   Overcast
1:34 PM -0.4 °F -21.2 °F -5.8 °F 78% 29.98 in 1.8 mi NNW 17.3 mph - N/A   Overcast
1:55 PM -2.2 °F -24.1 °F -5.8 °F 85% 30.00 in 1.5 mi NNW 18.4 mph 24.2 mph N/A   Overcast
2:15 PM -2.2 °F -23.5 °F -5.8 °F 85% 30.01 in 1.8 mi NNW 17.3 mph 21.9 mph N/A   Overcast
2:34 PM -2.2 °F -24.1 °F -7.6 °F 78% 30.02 in 2.0 mi NNW 18.4 mph 26.5 mph N/A   Haze
2:55 PM -2.2 °F -24.1 °F -7.6 °F 78% 30.03 in 1.2 mi NNW 18.4 mph 21.9 mph N/A   Overcast
3:15 PM -2.2 °F -25.2 °F -7.6 °F 78% 30.04 in 1.8 mi NNW 20.7 mph 24.2 mph N/A   Haze
3:34 PM -4.0 °F -25.8 °F -7.6 °F 85% 30.05 in 2.5 mi NNW 17.3 mph - N/A   Scattered Clouds
3:55 PM -4.0 °F -25.8 °F -7.6 °F 85% 30.05 in 2.5 mi NNW 17.3 mph - N/A   Mostly Cloudy
4:15 PM -4.0 °F -25.2 °F -7.6 °F 85% 30.06 in 2.5 mi NNW 16.1 mph 21.9 mph N/A   Mostly Cloudy
4:34 PM -4.0 °F -25.2 °F -7.6 °F 85% 30.06 in 2.0 mi NNW 16.1 mph - N/A   Overcast
4:55 PM -4.0 °F -28.1 °F -7.6 °F 85% 30.06 in 2.0 mi North 21.9 mph 25.3 mph N/A   Overcast
5:14 PM -4.0 °F -25.2 °F -7.6 °F 85% 30.07 in 4.0 mi North 16.1 mph - N/A   Mostly Cloudy
5:34 PM -4.0 °F -23.0 °F -7.6 °F 85% 30.09 in 7.0 mi NNW 12.7 mph - N/A   Scattered Clouds
5:55 PM -4.0 °F -24.5 °F -7.6 °F 85% 30.09 in 5.0 mi NNW 15.0 mph - N/A   Overcast
6:14 PM -4.0 °F -22.1 °F -7.6 °F 85% 30.10 in 2.0 mi NNW 11.5 mph - N/A Snow Light Snow
6:35 PM -4.0 °F -23.0 °F -7.6 °F 85% 30.10 in 10.0 mi NNW 12.7 mph - N/A   Mostly Cloudy
6:55 PM -4.0 °F -25.2 °F -7.6 °F 85% 30.11 in 10.0 mi NNW 16.1 mph - N/A   Scattered Clouds
7:14 PM -4.0 °F -23.7 °F -7.6 °F 85% 30.11 in 7.0 mi North 13.8 mph - N/A   Overcast
7:35 PM -4.0 °F -24.5 °F -7.6 °F 85% 30.11 in 7.0 mi North 15.0 mph - N/A   Overcast
7:55 PM -2.2 °F -22.2 °F -7.6 °F 78% 30.11 in 4.0 mi North 15.0 mph - N/A   Mostly Cloudy
8:14 PM -2.2 °F -24.1 °F -7.6 °F 78% 30.11 in 5.0 mi North 18.4 mph - N/A   Haze
8:35 PM -4.0 °F -25.2 °F -7.6 °F 85% 30.12 in 7.0 mi North 16.1 mph - N/A   Scattered Clouds
8:55 PM -4.0 °F -26.4 °F -9.4 °F 78% 30.13 in 5.0 mi North 18.4 mph - N/A   Haze
9:14 PM -4.0 °F -25.2 °F -9.4 °F 78% 30.14 in 10.0 mi North 16.1 mph - N/A   Clear
9:35 PM -5.8 °F -26.0 °F -9.4 °F 84% 30.14 in 10.0 mi North 13.8 mph - N/A   Clear
9:54 PM -5.8 °F -26.0 °F -9.4 °F 84% 30.15 in 10.0 mi North 13.8 mph - N/A   Clear
10:35 PM -5.8 °F -24.4 °F -9.4 °F 84% 30.16 in 10.0 mi North 11.5 mph - N/A   Clear
10:54 PM -5.8 °F -22.4 °F -9.4 °F 84% 30.17 in 10.0 mi North 9.2 mph - N/A   Clear
11:15 PM -5.8 °F -21.2 °F -9.4 °F 84% 30.17 in 10.0 mi North 8.1 mph - N/A   Clear
11:35 PM -5.8 °F -22.4 °F -9.4 °F 84% 30.17 in 10.0 mi North 9.2 mph - N/A   Clear
11:54 PM -5.8 °F -22.4 °F -9.4 °F 84% 30.17 in 10.0 mi North 9.2 mph - N/A   Clear